TimePST,TemperatureF,Dew PointF,Humidity,Sea Level PressureIn,VisibilityMPH,Wind Direction,Wind SpeedMPH,Gust SpeedMPH,PrecipitationIn,Events,Conditions,WindDirDegrees,DateUTC
12:56 AM,46.9,45.0,93,30.10,5.0,Calm,Calm,-,N/A,,Mostly Cloudy,0,2004-01-15 08:56:00
1:14 AM,46.4,44.6,93,30.10,4.0,Calm,Calm,-,N/A,,Mostly Cloudy,0,2004-01-15 09:14:00
1:56 AM,48.0,46.0,93,30.10,5.0,Calm,Calm,-,N/A,,Overcast,0,2004-01-15 09:56:00
2:56 AM,48.9,46.9,93,30.10,6.0,Calm,Calm,-,N/A,,Overcast,0,2004-01-15 10:56:00
3:36 AM,48.2,46.4,93,30.08,5.0,South,3.5,-,N/A,,Overcast,170,2004-01-15 11:36:00
3:56 AM,48.9,46.9,93,30.07,5.0,SSE,3.5,-,N/A,,Overcast,160,2004-01-15 11:56:00
4:56 AM,48.9,48.0,97,30.06,4.0,Calm,Calm,-,N/A,,Overcast,0,2004-01-15 12:56:00
5:56 AM,48.9,48.0,97,30.06,3.0,Calm,Calm,-,N/A,,Overcast,0,2004-01-15 13:56:00
6:28 AM,50.0,48.2,94,30.07,4.0,Calm,Calm,-,N/A,,Overcast,0,2004-01-15 14:28:00
6:56 AM,50.0,48.9,96,30.07,4.0,SE,4.6,-,N/A,,Overcast,130,2004-01-15 14:56:00
7:56 AM,50.0,48.9,96,30.07,5.0,Calm,Calm,-,N/A,,Overcast,0,2004-01-15 15:56:00
8:56 AM,51.1,50.0,96,30.08,4.0,NE,3.5,-,N/A,,Overcast,40,2004-01-15 16:56:00
9:56 AM,51.1,50.0,96,30.09,5.0,Calm,Calm,-,N/A,,Overcast,0,2004-01-15 17:56:00
10:56 AM,52.0,50.0,93,30.09,4.0,East,5.8,-,N/A,,Overcast,80,2004-01-15 18:56:00
11:56 AM,52.0,50.0,93,30.06,6.0,East,4.6,-,N/A,,Overcast,90,2004-01-15 19:56:00
12:56 PM,53.1,50.0,89,30.04,7.0,Calm,Calm,-,N/A,,Overcast,0,2004-01-15 20:56:00
1:56 PM,53.1,50.0,89,30.02,8.0,Calm,Calm,-,N/A,,Overcast,0,2004-01-15 21:56:00
2:56 PM,53.1,50.0,89,30.01,9.0,ESE,4.6,-,N/A,,Overcast,110,2004-01-15 22:56:00
3:56 PM,53.1,51.1,93,30.01,10.0,Calm,Calm,-,N/A,,Mostly Cloudy,0,2004-01-15 23:56:00
4:56 PM,54.0,50.0,86,30.01,10.0,WNW,11.5,-,N/A,,Mostly Cloudy,290,2004-01-16 00:56:00
5:56 PM,54.0,50.0,86,30.01,10.0,West,9.2,-,N/A,,Mostly Cloudy,270,2004-01-16 01:56:00
6:56 PM,53.1,50.0,89,30.02,10.0,West,4.6,-,N/A,,Mostly Cloudy,280,2004-01-16 02:56:00
7:56 PM,54.0,50.0,86,30.04,10.0,WSW,4.6,-,N/A,,Mostly Cloudy,240,2004-01-16 03:56:00
8:56 PM,54.0,50.0,86,30.04,10.0,SW,3.5,-,N/A,,Overcast,220,2004-01-16 04:56:00
9:56 PM,54.0,51.1,90,30.04,10.0,West,3.5,-,N/A,,Overcast,260,2004-01-16 05:56:00
10:56 PM,53.1,51.1,93,30.05,10.0,West,6.9,-,N/A,,Overcast,270,2004-01-16 06:56:00
11:56 PM,53.1,50.0,89,30.05,10.0,WSW,6.9,-,N/A,,Overcast,250,2004-01-16 07:56:00